Hourly Data Report for October 18, 2015

All times are specified in Local Standard Time (LST). Add 1 hour to adjust for Daylight Saving Time where and when it is observed.

EUREKA CLIMATE
NUNAVUT

79°59'21.000" N
85°56'02.000" W
10.00 m
2401199
71613
NEK

Download Data

Hourly Data (October 2015)
Hourly Data Report for October 18, 2015
Temp Definition
°C
Dew Point Temp Definition
°C
Rel Hum Definition
%
Wind Dir Definition
10's deg

Wind Spd Definition
km/h
Visibility Definition
km
Stn Press Definition
kPa
Hmdx Definition


Wind Chill Definition


Weather Definition


TIME
00:00 -20.6 -22.3 87 2 8   100.71   -27 LegendNANA
01:00 -21.7 -23.5 86 8 6   100.72   -27 LegendNANA
02:00 -22.3 -24.0 86 2 9   100.74   -29 LegendNANA
03:00 -22.0 -23.5 87 9 3   100.78   -25 LegendNANA
04:00 -22.8 -24.6 85 5 5   100.83   -27 LegendNANA
05:00 -24.8 -27.0 82 12 4   100.85   -29 LegendNANA
06:00 -23.2 -25.1 85 6 6   100.88   -29 LegendNANA
07:00 -22.8 -24.6 85 7 4   100.90   -27 LegendNANA
08:00 -23.9 -26.1 82 12 4   100.91   -28 LegendNANA
09:00 -22.7 -24.6 85 8 3   100.93   -25 LegendNANA
10:00 -21.2 -22.9 86 11 5   100.95   -26 LegendNANA
11:00 -20.1 -21.7 87 11 6   100.95   -25 LegendNANA
12:00 -21.2 -23.0 86 11 9   101.00   -28 LegendNANA
13:00 -20.3 -22.0 87 8 8   101.04   -27 LegendNANA
14:00 -19.9 -21.5 87 11 7   101.04   -26 LegendNANA
15:00 -18.7 -20.2 88 12 8   101.05   -25 LegendNANA
16:00 -16.9 -18.2 89 11 12   101.08   -24 LegendNANA
17:00 -16.9 -18.2 89 11 15   101.09   -25 LegendNANA
18:00 -15.5 -16.7 90 11 17   101.09   -24 LegendNANA
19:00 -15.9 -17.1 90 11 12   101.10   -23 LegendNANA
20:00 -15.2 -16.5 90 12 22   101.09   -25 LegendNANA
21:00 -15.3 -16.6 90 12 20   101.09   -25 LegendNANA
22:00 -15.3 -16.7 89 12 23   101.09   -25 LegendNANA
23:00 -15.0 -16.3 90 12 23   101.08   -25 LegendNANA

Notes on Data Quality.

Legend

  • E = Estimated
  • M = Missing
  • NA = Not Available
  • ‡ = Partner data that is not subject to review by the National Climate Archives
Date modified: